This is the latest recevied weather packets stored in our database for station/object K3HW. If no packets are shown the sender has not sent any weather packets the latest 10 day(s).
| Time | Temp. | Humidity | Pressure | Rain* | Wind** | Luminosity | Snow |
|---|---|---|---|---|---|---|---|
| 1778192011 | 17.78° C | 39% | 1011.5 hPa | 0 mm | - | 78 W/m² | - |
| 1778191707 | 18.33° C | 39% | 1011.6 hPa | 0 mm | - | 50 W/m² | - |
| 1778191406 | 18.33° C | 34% | 1011.8 hPa | 0 mm | - | 61 W/m² | - |
| 1778191102 | 18.89° C | 35% | 1011.8 hPa | 0 mm | - | 108 W/m² | - |
| 1778190799 | 18.89° C | 36% | 1011.7 hPa | 0 mm | - | 104 W/m² | - |
| 1778190496 | 18.89° C | 34% | 1011.8 hPa | 0 mm | - | 154 W/m² | - |
| 1778190194 | 18.89° C | 33% | 1011.7 hPa | 0 mm | - | 232 W/m² | - |
| 1778189888 | 19.44° C | 35% | 1011.8 hPa | 0 mm | - | 244 W/m² | - |
| 1778189586 | 19.44° C | 33% | 1012 hPa | 0 mm | - | 258 W/m² | - |
| 1778189282 | 18.89° C | 37% | 1011.9 hPa | 0 mm | - | 281 W/m² | - |
| 1778188978 | 18.89° C | 35% | 1011.7 hPa | 0 mm | - | 70 W/m² | - |
| 1778188675 | 19.44° C | 38% | 1011.7 hPa | 0 mm | - | 211 W/m² | - |
| 1778188371 | 18.89° C | 36% | 1011.9 hPa | 0 mm | - | 76 W/m² | - |
| 1778188068 | 18.33° C | 37% | 1011.8 hPa | 0 mm | - | 210 W/m² | - |
| 1778187765 | 18.89° C | 38% | 1012 hPa | 0 mm | - | 335 W/m² | - |
| 1778187462 | 18.89° C | 35% | 1011.9 hPa | 0 mm | - | 246 W/m² | - |
| 1778187159 | 18.89° C | 37% | 1011.9 hPa | 0 mm | - | 314 W/m² | - |
| 1778186855 | 18.89° C | 36% | 1011.9 hPa | 0 mm | - | 148 W/m² | - |
| 1778186553 | 18.89° C | 37% | 1011.5 hPa | 0 mm | - | 222 W/m² | - |
| 1778186250 | 18.33° C | 40% | 1011.7 hPa | 0 mm | - | 146 W/m² | - |
| 1778185947 | 18.33° C | 35% | 1011.6 hPa | 0 mm | - | 90 W/m² | - |
| 1778185644 | 18.33° C | 34% | 1011.6 hPa | 0 mm | - | 61 W/m² | - |
| 1778185340 | 17.78° C | 38% | 1011.8 hPa | 0 mm | - | 71 W/m² | - |
| 1778185035 | 17.78° C | 38% | 1011.8 hPa | 0 mm | - | 55 W/m² | - |
| 1778184732 | 18.33° C | 36% | 1011.9 hPa | 0 mm | - | 293 W/m² | - |
* Rain latest hour (hover to see other rain measurements)
** Current wind speed in m/s (hover to see current wind gust speed)